FW6754 Weather Reports


Display with metric or nautical units.
time (UTC)temp
F
wind
direction
speed
MPH
gust
MPH
rain 1hr
in
rain 24hr
in
rain mn
in
humidity
%
barometer
mb
20260509150911 94 0.0 0.0 0.00 0.00 0.00 10 1011.2
20260509150412 93 0.0 0.0 0.00 0.00 0.00 10 1011.4
20260509145912 97 0.0 0.0 0.00 0.00 0.00 10 1011.2
20260509145411 97 0.0 0.0 0.00 0.00 0.00 10 1011.3
20260509144412 97 0.0 0.0 0.00 0.00 0.00 10 1011.3
20260509143911 96 0.0 0.0 0.00 0.00 0.00 10 1011.4
20260509142911 95 0.0 0.0 0.00 0.00 0.00 10 1011.5
20260509142412 95 0.0 0.0 0.00 0.00 0.00 10 1011.6
20260509141912 95 0.0 0.0 0.00 0.00 0.00 10 1011.6
20260509141412 98 0.0 0.0 0.00 0.00 0.00 10 1011.5
20260509140912 96 0.0 0.0 0.00 0.00 0.00 10 1011.7
20260509140412 94 0.0 0.0 0.00 0.00 0.00 10 1011.9
20260509135912 91 0.0 0.0 0.00 0.00 0.00 10 1011.9
20260509135412 92 0.0 0.0 0.00 0.00 0.00 10 1011.9
20260509134912 89 0.0 0.0 0.00 0.00 0.00 10 1012.0
20260509134412 84 0.0 0.0 0.00 0.00 0.00 10 1012.2
20260509133912 78 0.0 0.0 0.00 0.00 0.00 10 1012.5
20260509133412 77 0.0 0.0 0.00 0.00 0.00 10 1012.6
20260509132912 78 0.0 0.0 0.00 0.00 0.00 10 1012.6
20260509132411 78 0.0 0.0 0.00 0.00 0.00 10 1012.5
20260509131912 77 0.0 0.0 0.00 0.00 0.00 10 1012.5
20260509131412 78 0.0 0.0 0.00 0.00 0.00 10 1012.6
20260509130911 78 0.0 0.0 0.00 0.00 0.00 10 1012.6
20260509130411 77 0.0 0.0 0.00 0.00 0.00 10 1012.8
20260509125911 78 0.0 0.0 0.00 0.00 0.00 10 1012.9
20260509125411 81 0.0 0.0 0.00 0.00 0.00 10 1012.6
20260509123913 78 0.0 0.0 0.00 0.00 0.00 10 1012.9
20260509123412 81 0.0 0.0 0.00 0.00 0.00 10 1012.8
20260509122911 88 0.0 0.0 0.00 0.00 0.00 10 1012.5
20260509121912 92 0.0 0.0 0.00 0.00 0.00 10 1012.4
20260509121412 91 0.0 0.0 0.00 0.00 0.00 10 1012.4
20260509120913 89 0.0 0.0 0.00 0.00 0.00 10 1012.5
20260509120412 90 0.0 0.0 0.00 0.00 0.00 10 1012.5
20260509115912 88 0.0 0.0 0.00 0.00 0.00 10 1012.6
20260509114911 76 0.0 0.0 0.00 0.00 0.00 10 1013.3
20260509114411 74 0.0 0.0 0.00 0.00 0.00 10 1013.5
20260509113912 74 0.0 0.0 0.00 0.00 0.00 10 1013.5
20260509113412 74 0.0 0.0 0.00 0.00 0.00 10 1013.4
20260509112911 75 0.0 0.0 0.00 0.00 0.00 10 1013.6
20260509112411 74 0.0 0.0 0.00 0.00 0.00 10 1013.6
20260509110911 73 0.0 0.0 0.00 0.00 0.00 10 1013.8
20260509110412 73 0.0 0.0 0.00 0.00 0.00 10 1013.8
20260509105911 73 0.0 0.0 0.00 0.00 0.00 10 1013.7
20260509104912 72 0.0 0.0 0.00 0.00 0.00 10 1014.0
20260509103911 72 0.0 0.0 0.00 0.00 0.00 10 1014.1
20260509102912 72 0.0 0.0 0.00 0.00 0.00 10 1014.0
20260509102412 72 0.0 0.0 0.00 0.00 0.00 10 1014.2
20260509101912 72 0.0 0.0 0.00 0.00 0.00 10 1014.3
20260509101412 72 0.0 0.0 0.00 0.00 0.00 10 1014.3
20260509100412 71 0.0 0.0 0.00 0.00 0.00 10 1014.4
20260509095912 71 0.0 0.0 0.00 0.00 0.00 10 1014.3
20260509095411 71 0.0 0.0 0.00 0.00 0.00 10 1014.4
20260509094411 70 0.0 0.0 0.00 0.00 0.00 10 1014.4
20260509093411 70 0.0 0.0 0.00 0.00 0.00 10 1014.5
20260509091911 69 0.0 0.0 0.00 0.00 0.00 10 1014.7
20260509090911 68 0.0 0.0 0.00 0.00 0.00 10 1014.7
20260509090412 68 0.0 0.0 0.00 0.00 0.00 10 1014.8
20260509085912 67 0.0 0.0 0.00 0.00 0.00 10 1014.9
20260509085413 67 0.0 0.0 0.00 0.00 0.00 10 1014.9
20260509084912 67 0.0 0.0 0.00 0.00 0.00 10 1014.9
20260509084411 67 0.0 0.0 0.00 0.00 0.00 10 1015.0
20260509083912 66 0.0 0.0 0.00 0.00 0.00 10 1015.0
20260509083411 66 0.0 0.0 0.00 0.00 0.00 10 1015.2
20260509082412 66 0.0 0.0 0.00 0.00 0.00 10 1015.2
20260509081912 65 0.0 0.0 0.00 0.00 0.00 10 1015.2
20260509081412 65 0.0 0.0 0.00 0.00 0.00 10 1015.2
20260509080912 65 0.0 0.0 0.00 0.00 0.00 10 1015.4
20260509080412 64 0.0 0.0 0.00 0.00 0.00 10 1015.5
20260509075912 64 0.0 0.0 0.00 0.00 0.00 10 1015.4
20260509075411 64 0.0 0.0 0.00 0.00 0.00 10 1015.6
20260509074912 63 0.0 0.0 0.00 0.00 0.00 10 1015.6
20260509074411 62 0.0 0.0 0.00 0.00 0.00 10 1015.7
20260509073912 62 0.0 0.0 0.00 0.00 0.00 10 1015.9
20260509073412 62 0.0 0.0 0.00 0.00 0.00 10 1015.9
20260509072911 61 0.0 0.0 0.00 0.00 0.00 10 1016.0
20260509072412 61 0.0 0.0 0.00 0.00 0.00 10 1016.1
20260509071912 60 0.0 0.0 0.00 0.00 0.00 10 1016.1
20260509071413 60 0.0 0.0 0.00 0.00 0.00 10 1016.1
20260509070912 59 0.0 0.0 0.00 0.00 0.00 10 1016.2
20260509070412 59 0.0 0.0 0.00 0.00 0.00 10 1016.3
20260509065912 58 0.0 0.0 0.00 0.00 0.00 10 1016.3
20260509065812 58 0.0 0.0 0.00 0.00 0.00 10 1016.3
20260509065711 58 0.0 0.0 0.00 0.00 0.00 10 1016.4
20260509065611 58 0.0 0.0 0.00 0.00 0.00 10 1016.4
20260509064612 56 0.0 0.0 0.00 0.00 0.00 10 1016.7
20260509064112 55 0.0 0.0 0.00 0.00 0.00 10 1016.7
20260509063611 55 0.0 0.0 0.00 0.00 0.00 10 1016.7
20260509063111 54 0.0 0.0 0.00 0.00 0.00 10 1016.8
20260509062121 53 0.0 0.0 0.00 0.00 0.00 10 1016.9
20260509061411 52 0.0 0.0 0.00 0.00 0.00 10 1016.9
20260509060411 51 0.0 0.0 0.00 0.00 0.00 10 1016.9
20260509055911 51 0.0 0.0 0.00 0.00 0.00 10 1016.9
20260509055411 50 0.0 0.0 0.00 0.00 0.00 10 1016.9
20260509054912 50 0.0 0.0 0.00 0.00 0.00 10 1017.0
20260509054411 49 0.0 0.0 0.00 0.00 0.00 10 1017.0
20260509053411 49 0.0 0.0 0.00 0.00 0.00 10 1016.9
20260509052411 48 0.0 0.0 0.00 0.00 0.00 10 1016.9
20260509051411 48 0.0 0.0 0.00 0.00 0.00 10 1016.8
20260509050912 48 0.0 0.0 0.00 0.00 0.00 10 1016.8
20260509050412 48 0.0 0.0 0.00 0.00 0.00 10 1016.7
20260509045912 48 0.0 0.0 0.00 0.00 0.00 10 1016.7
20260509045412 47 0.0 0.0 0.00 0.00 0.00 10 1016.6
20260509044912 47 0.0 0.0 0.00 0.00 0.00 10 1016.7
20260509044411 47 0.0 0.0 0.00 0.00 0.00 10 1016.7
20260509043912 47 0.0 0.0 0.00 0.00 0.00 10 1016.7
20260509043413 47 0.0 0.0 0.00 0.00 0.00 10 1016.5
20260509042912 47 0.0 0.0 0.00 0.00 0.00 10 1016.5
20260509042411 47 0.0 0.0 0.00 0.00 0.00 10 1016.5
20260509041912 47 0.0 0.0 0.00 0.00 0.00 10 1016.5
20260509041411 47 0.0 0.0 0.00 0.00 0.00 10 1016.4
20260509040911 47 0.0 0.0 0.00 0.00 0.00 10 1016.4
20260509040411 47 0.0 0.0 0.00 0.00 0.00 10 1016.5
20260509035912 47 0.0 0.0 0.00 0.00 0.00 10 1016.5
20260509035412 47 0.0 0.0 0.00 0.00 0.00 10 1016.4
20260509034912 47 0.0 0.0 0.00 0.00 0.00 10 1016.4
20260509034411 47 0.0 0.0 0.00 0.00 0.00 10 1016.4
20260509033913 47 0.0 0.0 0.00 0.00 0.00 10 1016.5
20260509033412 47 0.0 0.0 0.00 0.00 0.00 10 1016.4
20260509032912 47 0.0 0.0 0.00 0.00 0.00 10 1016.4
20260509032412 48 0.0 0.0 0.00 0.00 0.00 10 1016.4
20260509031912 48 0.0 0.0 0.00 0.00 0.00 10 1016.4
20260509031411 48 0.0 0.0 0.00 0.00 0.00 10 1016.5
20260509025412 48 0.0 0.0 0.00 0.00 0.00 10 1016.3
20260509024912 48 0.0 0.0 0.00 0.00 0.00 10 1016.4
20260509023911 49 0.0 0.0 0.00 0.00 0.00 10 1016.4
20260509023411 49 0.0 0.0 0.00 0.00 0.00 10 1016.4
20260509022412 50 0.0 0.0 0.00 0.00 0.00 10 1016.4
20260509021912 50 0.0 0.0 0.00 0.00 0.00 10 1016.4
20260509021412 50 0.0 0.0 0.00 0.00 0.00 10 1016.4
20260509020911 50 0.0 0.0 0.00 0.00 0.00 10 1016.5
20260509015912 50 0.0 0.0 0.00 0.00 0.00 10 1016.6
20260509015411 50 0.0 0.0 0.00 0.00 0.00 10 1016.5
20260509014411 50 0.0 0.0 0.00 0.00 0.00 10 1016.6
20260509013911 50 0.0 0.0 0.00 0.00 0.00 10 1016.5
20260509012912 49 0.0 0.0 0.00 0.00 0.00 10 1016.6
20260509012411 49 0.0 0.0 0.00 0.00 0.00 10 1016.6
20260509011911 49 0.0 0.0 0.00 0.00 0.00 10 1016.7
20260509010911 49 0.0 0.0 0.00 0.00 0.00 10 1016.8
20260509010411 49 0.0 0.0 0.00 0.00 0.00 10 1016.8
20260509005911 49 0.0 0.0 0.00 0.00 0.00 10 1016.8
20260509005411 50 0.0 0.0 0.00 0.00 0.00 10 1016.9
20260509004912 50 0.0 0.0 0.00 0.00 0.00 10 1016.9
20260509004412 50 0.0 0.0 0.00 0.00 0.00 10 1017.0
20260509003912 50 0.0 0.0 0.00 0.00 0.00 10 1017.0
20260509003412 50 0.0 0.0 0.00 0.00 0.00 10 1016.9
20260509002912 50 0.0 0.0 0.00 0.00 0.00 10 1016.9
20260509002412 51 0.0 0.0 0.00 0.00 0.00 10 1016.9
20260509001912 51 0.0 0.0 0.00 0.00 0.00 10 1016.8
20260509001412 51 0.0 0.0 0.00 0.00 0.00 10 1016.8
20260509000912 51 0.0 0.0 0.00 0.00 0.00 10 1016.8
20260509000412 51 0.0 0.0 0.00 0.00 0.00 10 1016.8
20260508235912 52 0.0 0.0 0.00 0.00 0.00 10 1016.8
20260508235412 52 0.0 0.0 0.00 0.00 0.00 10 1016.8
20260508234912 52 0.0 0.0 0.00 0.00 0.00 10 1016.8
20260508234411 52 0.0 0.0 0.00 0.00 0.00 10 1016.9
20260508233912 52 0.0 0.0 0.00 0.00 0.00 10 1017.0
20260508233411 52 0.0 0.0 0.00 0.00 0.00 10 1017.1
20260508232912 52 0.0 0.0 0.00 0.00 0.00 10 1017.2
20260508232412 52 0.0 0.0 0.00 0.00 0.00 10 1017.3
20260508231911 52 0.0 0.0 0.00 0.00 0.00 10 1017.3
20260508231412 52 0.0 0.0 0.00 0.00 0.00 10 1017.4
20260508230912 52 0.0 0.0 0.00 0.00 0.00 10 1017.4
20260508230412 52 0.0 0.0 0.00 0.00 0.00 10 1017.6
20260508225912 52 0.0 0.0 0.00 0.00 0.00 10 1017.5
20260508225412 52 0.0 0.0 0.00 0.00 0.00 10 1017.6
20260508224911 52 0.0 0.0 0.00 0.00 0.00 10 1017.6
20260508224411 52 0.0 0.0 0.00 0.00 0.00 10 1017.7
20260508223412 52 0.0 0.0 0.00 0.00 0.00 10 1017.4
20260508222911 52 0.0 0.0 0.00 0.00 0.00 10 1017.3
20260508222411 52 0.0 0.0 0.00 0.00 0.00 10 1017.2
20260508221911 52 0.0 0.0 0.00 0.00 0.00 10 1017.2
20260508221411 52 0.0 0.0 0.00 0.00 0.00 10 1017.3
20260508220412 52 0.0 0.0 0.00 0.00 0.00 10 1017.3
20260508215912 52 0.0 0.0 0.00 0.00 0.00 10 1017.3
20260508215412 52 0.0 0.0 0.00 0.00 0.00 10 1017.2
20260508214912 52 0.0 0.0 0.00 0.00 0.00 10 1017.3
20260508214412 52 0.0 0.0 0.00 0.00 0.00 10 1017.3
20260508213912 52 0.0 0.0 0.00 0.00 0.00 10 1017.3
20260508212911 52 0.0 0.0 0.00 0.00 0.00 10 1017.3
20260508212411 53 0.0 0.0 0.00 0.00 0.00 10 1017.2
20260508211412 53 0.0 0.0 0.00 0.00 0.00 10 1017.2
20260508210911 53 0.0 0.0 0.00 0.00 0.00 10 1017.2
20260508210412 53 0.0 0.0 0.00 0.00 0.00 10 1017.2
20260508205912 53 0.0 0.0 0.00 0.00 0.00 10 1017.0
20260508205412 53 0.0 0.0 0.00 0.00 0.00 10 1017.1
20260508204912 53 0.0 0.0 0.00 0.00 0.00 10 1017.1
20260508204412 54 0.0 0.0 0.00 0.00 0.00 10 1017.1
20260508203912 54 0.0 0.0 0.00 0.00 0.00 10 1017.0
20260508203412 54 0.0 0.0 0.00 0.00 0.00 10 1017.1
20260508202912 54 0.0 0.0 0.00 0.00 0.00 10 1017.1
20260508202412 55 0.0 0.0 0.00 0.00 0.00 10 1017.0
20260508201912 55 0.0 0.0 0.00 0.00 0.00 10 1016.9
20260508201413 55 0.0 0.0 0.00 0.00 0.00 10 1016.9
20260508200911 55 0.0 0.0 0.00 0.00 0.00 10 1016.8
20260508200411 56 0.0 0.0 0.00 0.00 0.00 10 1016.7
20260508195911 56 0.0 0.0 0.00 0.00 0.00 10 1016.6
20260508194911 56 0.0 0.0 0.00 0.00 0.00 10 1016.4
20260508194411 57 0.0 0.0 0.00 0.00 0.00 10 1016.3
20260508193412 57 0.0 0.0 0.00 0.00 0.00 10 1016.1
20260508192912 58 0.0 0.0 0.00 0.00 0.00 10 1016.0
20260508192412 58 0.0 0.0 0.00 0.00 0.00 10 1015.8
20260508191911 59 0.0 0.0 0.00 0.00 0.00 10 1015.8
20260508191412 59 0.0 0.0 0.00 0.00 0.00 10 1015.7
20260508190912 60 0.0 0.0 0.00 0.00 0.00 10 1015.6
20260508190413 60 0.0 0.0 0.00 0.00 0.00 10 1015.5
20260508185911 61 0.0 0.0 0.00 0.00 0.00 10 1015.3
20260508184412 63 0.0 0.0 0.00 0.00 0.00 10 1015.0
20260508183912 63 0.0 0.0 0.00 0.00 0.00 10 1014.9
20260508183412 64 0.0 0.0 0.00 0.00 0.00 10 1014.8
20260508182912 65 0.0 0.0 0.00 0.00 0.00 10 1014.7
20260508182413 65 0.0 0.0 0.00 0.00 0.00 10 1014.6
20260508181911 66 0.0 0.0 0.00 0.00 0.00 10 1014.6
20260508181411 67 0.0 0.0 0.00 0.00 0.00 10 1014.5
20260508180911 67 0.0 0.0 0.00 0.00 0.00 10 1014.4
20260508180411 68 0.0 0.0 0.00 0.00 0.00 10 1014.3
20260508175411 69 0.0 0.0 0.00 0.00 0.00 10 1014.2
20260508174911 71 0.0 0.0 0.00 0.00 0.00 10 1014.1
20260508174412 72 0.0 0.0 0.00 0.00 0.00 10 1014.1
20260508173912 75 0.0 0.0 0.00 0.00 0.00 10 1013.8
20260508173412 80 0.0 0.0 0.00 0.00 0.00 10 1013.7
20260508172912 84 0.0 0.0 0.00 0.00 0.00 10 1013.4
20260508172412 83 0.0 0.0 0.00 0.00 0.00 10 1013.4
20260508171912 78 0.0 0.0 0.00 0.00 0.00 10 1013.6
20260508171412 76 0.0 0.0 0.00 0.00 0.00 10 1013.6
20260508170912 76 0.0 0.0 0.00 0.00 0.00 10 1013.7
20260508165911 75 0.0 0.0 0.00 0.00 0.00 10 1013.6
20260508164912 76 0.0 0.0 0.00 0.00 0.00 10 1013.6
20260508164411 76 0.0 0.0 0.00 0.00 0.00 10 1013.5
20260508163911 76 0.0 0.0 0.00 0.00 0.00 10 1013.6
20260508163412 75 0.0 0.0 0.00 0.00 0.00 10 1013.7
20260508162911 74 0.0 0.0 0.00 0.00 0.00 10 1013.6
20260508162411 74 0.0 0.0 0.00 0.00 0.00 10 1013.6
20260508161412 73 0.0 0.0 0.00 0.00 0.00 10 1013.8
20260508160912 73 0.0 0.0 0.00 0.00 0.00 10 1013.8
20260508160412 75 0.0 0.0 0.00 0.00 0.00 10 1013.9
20260508155911 76 0.0 0.0 0.00 0.00 0.00 10 1013.7
20260508155411 78 0.0 0.0 0.00 0.00 0.00 10 1013.7
20260508154911 80 0.0 0.0 0.00 0.00 0.00 10 1013.6
20260508154411 80 0.0 0.0 0.00 0.00 0.00 10 1013.7
20260508153912 80 0.0 0.0 0.00 0.00 0.00 10 1013.7
20260508152912 82 0.0 0.0 0.00 0.00 0.00 10 1013.7
20260508152411 83 0.0 0.0 0.00 0.00 0.00 10 1013.6
20260508151911 87 0.0 0.0 0.00 0.00 0.00 10 1013.5